Mario Boric

Recruteur en chef - Sibenik
3 Févr 2028
Jeudi
Processus

Personnalité

Adaptabilité (16) Ambition (10) Controverse (9) Loyauté (10) Pression (17) Professionnalisme (11) Sportivité (16) Tempérament (12)

Profil

Style d'entraînement Démocratique
Diplôme Continental Pro
Détermination 6
Gestion des joueurs 6
Motivation 8
Discipline 9
Satisfaction professionnelle
100%
Fatigue
0%
Rôle Recruteur en chef
Salaire 33.1K p/s
Contrat 14.03.2030

Performance

Comportement Bon
Efficacité de l'entraînement
29%
Développement des joueurs
30%
Prévention des blessures
15%
Mise en place tactique
50%

Événements récents

A participé à une réunion de recrutement 7j
A recommandé une cible de transfert 7j
A évalué un joueur 7j
A évalué un joueur 7j
A évalué un joueur 7j
A évalué un joueur 7j
A évalué un joueur 7j
A évalué un joueur 14j

Suivi en cours

115
Joueur Club Statut Capacité Confiance Observé Dernière observation Dernier vote
Emilio Di Fulvio Colegiales Actif 109 / 114 40% 3 29.01.2028 -
Carlos Mercado Ermis Actif 97 / 109 40% 2 29.01.2028 -
Dmytro Matsapura Metalurh Zaporizhzhia Actif 110 / 124 40% 1 29.01.2028 -
Karlo Kralj Rudes Actif 105 / 115 40% 2 28.01.2028 -
Alejo Medina Agropecuario Argentino Actif 103 / 105 40% 1 28.01.2028 -
Nahuel Yzaurralde Quilmes Actif 99 / 99 40% 1 27.01.2028 -
Islam Imamov SKA Khabarovsk Actif 104 / 101 40% 1 27.01.2028 -
Lukas Wedl Chikhura Actif 109 / 100 40% 3 26.01.2028 -
Ilja Tuseev Chelyabinsk Actif 109 / 88 40% 2 26.01.2028 -
Nikita Chagrov Rotor Actif 98 / 110 40% 1 26.01.2028 -
Danylo Kanevtsev Bukovyna Actif 109 / 88 40% 1 25.01.2028 -
Evgeniy Abramovich Slavia Mozyr Actif 95 / 85 40% 1 25.01.2028 -
Maksym Tatarenko Chernihiv Actif 110 / 106 40% 1 25.01.2028 -
Vitor Hugo Lusitânia Lourosa Actif 105 / 129 40% 1 23.01.2028 -
Christy Pym Crawley Town Actif 108 / 109 40% 1 19.01.2028 -
José Febres Trujillanos Actif 103 / 93 40% 1 19.01.2028 -
Daniil Frolkin Fakel Actif 104 / 107 40% 1 19.01.2028 -
Ivan Pakholiuk Kolos Actif 132 / 121 40% 2 18.01.2028 -
Sergey Volkov Rodina Actif 111 / 115 40% 1 18.01.2028 -
Alejandro Rincon Atletico Venezuela Actif 95 / 94 40% 2 17.01.2028 -
Santiago Silva Boston River Actif 127 / 124 40% 1 17.01.2028 -
Alejandro Araque Deportivo Tachira Actif 111 / 102 40% 1 16.01.2028 -
Alejandro Arana Agia Napa Actif 87 / 109 40% 1 15.01.2028 -
Felix Kyei Medeama Actif 87 / 98 40% 1 15.01.2028 -
Jack Stevens Burton Albion Actif 94 / 101 40% 1 13.01.2028 -
Tornike Arveladze Tskhinvali Actif 102 / 82 40% 1 13.01.2028 -
Albert Valjent FK Senica Actif 117 / 126 40% 1 10.01.2028 -
Dillon Phillips Salford City Actif 126 / 93 40% 1 08.01.2028 -
Sindri Kristinn Ólafsson Keflavik Actif 115 / 98 40% 1 07.01.2028 -
Beycker Velásquez Zamora Actif 106 / 117 40% 1 07.01.2028 -
Dominik Glavina Segesta Rapport prêt 81 / 80 65% 1 01.01.2028 Approuver
Abubakar Garba Nasarawa United Actif 87 / 85 40% 2 31.08.2027 -
Chisom Orji Warri Wolves Actif 97 / 82 40% 1 31.08.2027 -
Timothy Zechariah Rivers United Actif 108 / 93 40% 1 31.08.2027 -
Chisom Chikatara Bendel Insurance Actif 100 / 91 40% 2 30.08.2027 -
Samson Obi Katsina United Actif 93 / 86 40% 2 30.08.2027 -
Malick Traoré Onze Createurs Actif 93 / 89 40% 1 30.08.2027 -
Cal Jennings ASO Chlef Actif 99 / 103 40% 7 29.08.2027 -
Harrison Gyan BA All Stars Actif 100 / 94 40% 1 29.08.2027 -
Hamza Issah Hearts of Oak Actif 104 / 105 40% 2 27.08.2027 -
Ganiyu Wasiu Shooting Stars Actif 98 / 94 40% 1 27.08.2027 -
David Onovo Katsina United Actif 99 / 82 40% 1 26.08.2027 -
Ezekiel Edidiong Enyimba Actif 93 / 84 40% 1 26.08.2027 -
Terdoo Shimagande Niger Tornadoes Actif 73 / 91 40% 1 26.08.2027 -
Mohammed Boateng Liberty Professionals Actif 105 / 83 40% 4 25.08.2027 -
Ronaldo Peña Deportivo Lara Actif 113 / 103 40% 1 25.08.2027 -
Augusto Berrondo Tristán Suárez Actif 117 / 105 40% 1 25.08.2027 -
Suleiman Abdullahi ASO Chlef Actif 111 / 105 40% 2 24.08.2027 -
Alexis Domínguez Chacarita Juniors Actif 106 / 102 40% 1 24.08.2027 -
Saaka Dauda Asante Kotoko Actif 88 / 81 40% 3 23.08.2027 -
Kufre Ebong Niger Tornadoes Actif 88 / 76 40% 2 23.08.2027 -
Alao Dabani Plateau United Actif 80 / 88 40% 1 23.08.2027 -
Jonathan Cañete Portuguesa Actif 111 / 98 40% 2 22.08.2027 -
Okardi Inikurogha Bayelsa United Actif 98 / 111 40% 1 22.08.2027 -
Auwalu Ali Malam Kano Pillars Actif 96 / 89 40% 1 20.08.2027 -
Maren Kefas Plateau United Actif 88 / 75 40% 1 18.08.2027 -
Claudio Morra Vicenza Actif 112 / 116 40% 4 17.08.2027 -
Qamar Adegoke Shooting Stars Actif 99 / 90 40% 1 17.08.2027 -
Beryly Lubala Vicenza Actif 95 / 111 40% 5 16.08.2027 -
Kleyder Barreto Zulia Actif 99 / 80 40% 1 16.08.2027 -
Rodrigo Mosqueira Agropecuario Argentino Actif 114 / 111 40% 2 15.08.2027 -
Jack Vale Pro Vercelli Actif 112 / 86 40% 4 13.08.2027 -
Alberto Spagnoli Union Brescia Actif 117 / 131 40% 3 13.08.2027 -
Samson Olasupo Remo Stars Actif 95 / 95 40% 1 13.08.2027 -
Marco Bustillo Zamora Actif 109 / 101 40% 1 11.08.2027 -
Santiago Apa All Boys Actif 117 / 98 40% 1 11.08.2027 -
Rhys Browne Barnet Actif 93 / 102 40% 1 06.08.2027 -
Harry Smith Barnet Actif 109 / 116 40% 4 05.08.2027 -
Rhys Oates Mansfield Town Actif 93 / 83 40% 4 04.08.2027 -
Rodrigo Rivero Wanderers Actif 120 / 107 40% 1 03.08.2027 -
Richard Figueroa Deportivo Lara Actif 102 / 97 40% 1 02.08.2027 -
Francisco Bonfiglio Boston River Actif 111 / 102 40% 1 02.08.2027 -
Cristian Barros Cerro Actif 114 / 102 40% 1 02.08.2027 -
Harry Cornick AFC Wimbledon Actif 92 / 105 40% 3 31.07.2027 -
Jude Soonsup-Bell Ashanti Gold Actif 102 / 85 40% 2 30.07.2027 -
Ronny Maza Aragua Actif 92 / 106 40% 1 30.07.2027 -
Alexis Ferrante Ternana Actif 101 / 116 40% 2 27.07.2027 -
Chinedu Onyinjekwu Bayelsa United Actif 107 / 80 40% 2 27.07.2027 -
Gonzalo Berterame Morón Actif 111 / 123 40% 1 26.07.2027 -
Ronan Curtis Plymouth Argyle Actif 90 / 108 40% 1 24.07.2027 -
Charlie Brown Accrington Stanley Actif 93 / 98 40% 2 23.07.2027 -
Danylo Kravchuk LNZ Actif 114 / 107 40% 3 20.07.2027 -
Gavin Vlijter Giana Erminio Actif 96 / 80 40% 1 20.07.2027 -
Joaquín Vera Crawley Town Actif 88 / 99 40% 3 17.07.2027 -
Nicolás Contín Saburtalo Actif 108 / 123 40% 2 17.07.2027 -
Louis Flower Crawley Town Actif 100 / 109 40% 2 17.07.2027 -
Will Evans Mansfield Town Actif 88 / 98 40% 1 16.07.2027 -
Francesco Petito Dolomiti Bellunesi Actif 97 / 114 40% 2 13.07.2027 -
Djibril Coulibaly Real Bamako Actif 90 / 104 40% 1 13.07.2027 -
Bismark Asante Ashanti Gold Actif 98 / 111 40% 2 11.07.2027 -
King Udoh Pro Patria Actif 111 / 85 40% 1 10.07.2027 -
Giacomo Sali AlbinoLeffe Actif 103 / 96 40% 1 08.07.2027 -
Fernando Mimbacas Juventud Actif 105 / 107 40% 1 06.07.2027 -
Gianluca Contini Siracusa Actif 102 / 89 40% 2 03.07.2027 -
Sean Parker Lecco Actif 92 / 108 40% 2 02.07.2027 -
José Álvarez Arsenal Tula Actif 113 / 108 40% 1 28.06.2027 -
Sheldon Dinesh Stockport County Actif 95 / 120 40% 2 26.06.2027 -
Elliott List Northampton Town Actif 96 / 109 40% 1 26.06.2027 -
Kane Drummond Oldham Athletic Actif 85 / 74 40% 2 25.06.2027 -
Michele Emmausso Cosenza Actif 97 / 118 40% 1 24.06.2027 -
Anatole Abang USM Alger Actif 111 / 122 40% 1 23.06.2027 -
Aldair Ramírez Chernomorets Actif 96 / 102 40% 1 23.06.2027 -
Maclyn Biokpo Jenewari Rivers United Actif 101 / 87 40% 1 18.06.2027 -
Kian Harratt Oldham Athletic Actif 85 / 95 40% 1 12.06.2027 -
Alexandr Yushin Torpedo Moscow Actif 99 / 116 40% 1 12.06.2027 -
Keita Baldé Monza Actif 124 / 107 40% 1 09.06.2027 -
Tyler Walton Walsall Actif 92 / 98 40% 1 09.06.2027 -
Nicolás Heiz Kudrivka Actif 100 / 102 40% 1 04.06.2027 -
Nahuel Brunet Godoy Cruz Actif 109 / 106 40% 1 11.08.2026 -
George Ayine Metropolitanos Actif 93 / 86 40% 1 11.08.2026 -
Ivan Cvijanović HNK Gorica Actif 91 / 109 40% 1 07.08.2026 -
Arlés Flores Actif 109 / 120 40% 1 07.08.2026 -
Teddy Teuma Sliema Wanderers Actif 132 / 142 40% 1 05.08.2026 -
José Alí Meza Deportivo La Guaira Actif 119 / 108 40% 1 05.08.2026 -
Bruno Unušić Rudes Actif 106 / 114 40% 1 03.08.2026 -